| time (UTC) | temp C | wind direction | speed KPH | gust KPH | rain 1hr cm | rain 24hr cm | rain mn cm | humidity % | barometer mb |
| 20260506200034 | 25 | 200 | 3.2 | 8.0 | 0.00 | 0.28 | 0.28 | 82 | 1015.8 |
| 20260506194535 | 25 | 131 | 1.6 | 8.0 | 0.00 | 0.28 | 0.28 | 82 | 1015.7 |
| 20260506193033 | 25 | 202 | 3.2 | 9.7 | 0.00 | 0.28 | 0.28 | 82 | 1016.0 |
| 20260506191540 | 25 | 196 | 1.6 | 9.7 | 0.00 | 0.28 | 0.28 | 82 | 1016.2 |
| 20260506190035 | 25 | 205 | 3.2 | 16.1 | 0.00 | 0.28 | 0.28 | 80 | 1016.3 |
| 20260506184546 | 26 | 198 | 3.2 | 9.7 | 0.00 | 0.28 | 0.28 | 80 | 1016.4 |
| 20260506183050 | 26 | 211 | 1.6 | 12.9 | 0.00 | 0.28 | 0.28 | 79 | 1016.4 |
| 20260506181558 | 26 | 220 | 3.2 | 12.9 | 0.00 | 0.28 | 0.28 | 78 | 1016.5 |
| 20260506180037 | 26 | 170 | 1.6 | 8.0 | 0.00 | 0.28 | 0.28 | 79 | 1016.6 |
| 20260506174533 | 26 | 198 | 1.6 | 8.0 | 0.00 | 0.28 | 0.28 | 79 | 1016.8 |
| 20260506173053 | 25 | 202 | 1.6 | 6.4 | 0.00 | 0.28 | 0.28 | 80 | 1017.1 |
| 20260506171534 | 25 | 203 | 1.6 | 8.0 | 0.00 | 0.28 | 0.28 | 80 | 1017.5 |
| 20260506170039 | 25 | 213 | 1.6 | 6.4 | 0.00 | 0.28 | 0.28 | 81 | 1017.4 |
| 20260506164538 | 25 | 200 | 0.0 | 4.8 | 0.00 | 0.28 | 0.28 | 80 | 1017.6 |
| 20260506163038 | 25 | 200 | 1.6 | 8.0 | 0.00 | 0.28 | 0.28 | 79 | 1017.6 |
| 20260506161535 | 25 | 194 | 1.6 | 8.0 | 0.00 | 0.28 | 0.28 | 79 | 1017.8 |
| 20260506160034 | 25 | 202 | 3.2 | 8.0 | 0.00 | 0.28 | 0.28 | 78 | 1017.7 |
| 20260506154542 | 26 | 198 | 1.6 | 6.4 | 0.00 | 0.28 | 0.28 | 75 | 1017.9 |
| 20260506153050 | 25 | 0 | 0.0 | 6.4 | 0.00 | 0.28 | 0.28 | 77 | 1017.8 |
| 20260506151541 | 25 | 208 | 0.0 | 4.8 | 0.00 | 0.28 | 0.28 | 79 | 1018.2 |
| 20260506150035 | 25 | 198 | 0.0 | 6.4 | 0.00 | 0.28 | 0.28 | 78 | 1018.1 |
| 20260506144544 | 25 | 201 | 1.6 | 6.4 | 0.00 | 0.28 | 0.28 | 77 | 1017.8 |
| 20260506143040 | 25 | 212 | 1.6 | 8.0 | 0.00 | 0.28 | 0.28 | 77 | 1017.5 |
| 20260506141535 | 25 | 202 | 1.6 | 9.7 | 0.00 | 0.28 | 0.28 | 80 | 1017.6 |
| 20260506140035 | 24 | 201 | 3.2 | 8.0 | 0.00 | 0.28 | 0.28 | 81 | 1017.5 |
| 20260506134536 | 23 | 0 | 0.0 | 4.8 | 0.00 | 0.28 | 0.28 | 85 | 1017.2 |
| 20260506133034 | 23 | 214 | 1.6 | 6.4 | 0.00 | 0.28 | 0.28 | 84 | 1017.2 |
| 20260506131539 | 23 | 211 | 1.6 | 4.8 | 0.00 | 0.28 | 0.28 | 85 | 1016.8 |
| 20260506130036 | 23 | 223 | 0.0 | 6.4 | 0.00 | 0.28 | 0.28 | 85 | 1017.2 |
| 20260506124535 | 23 | 0 | 0.0 | 4.8 | 0.00 | 0.28 | 0.28 | 86 | 1017.2 |
| 20260506123035 | 23 | 0 | 1.6 | 4.8 | 0.00 | 0.28 | 0.28 | 87 | 1016.8 |
| 20260506121531 | 22 | 191 | 1.6 | 6.4 | 0.00 | 0.28 | 0.28 | 88 | 1016.9 |
| 20260506120041 | 22 | 0 | 0.0 | 3.2 | 0.00 | 0.28 | 0.28 | 89 | 1016.7 |
| 20260506114536 | 21 | 0 | 0.0 | 3.2 | 0.00 | 0.28 | 0.28 | 90 | 1016.5 |
| 20260506113040 | 21 | 0 | 0.0 | 3.2 | 0.00 | 0.28 | 0.28 | 91 | 1016.3 |
| 20260506111533 | 20 | 0 | 0.0 | 0.0 | 0.00 | 0.28 | 0.28 | 91 | 1016.4 |
| 20260506110040 | 20 | 0 | 0.0 | 0.0 | 0.00 | 0.28 | 0.28 | 90 | 1016.3 |
| 20260506104536 | 20 | 0 | 0.0 | 0.0 | 0.00 | 0.28 | 0.28 | 90 | 1016.3 |
| 20260506103037 | 20 | 0 | 0.0 | 0.0 | 0.00 | 0.28 | 0.28 | 89 | 1016.3 |
| 20260506101533 | 20 | 0 | 0.0 | 0.0 | 0.00 | 0.28 | 0.28 | 89 | 1016.0 |
| 20260506100037 | 20 | 0 | 0.0 | 0.0 | 0.00 | 0.28 | 0.28 | 88 | 1016.3 |
| 20260506094538 | 20 | 0 | 0.0 | 0.0 | 0.00 | 0.28 | 0.28 | 88 | 1016.0 |
| 20260506093035 | 21 | 0 | 0.0 | 1.6 | 0.00 | 0.28 | 0.28 | 88 | 1016.0 |
| 20260506091536 | 21 | 0 | 0.0 | 0.0 | 0.00 | 0.28 | 0.28 | 87 | 1016.1 |
| 20260506090035 | 21 | 0 | 0.0 | 0.0 | 0.00 | 0.28 | 0.28 | 86 | 1015.9 |
| 20260506084531 | 21 | 0 | 0.0 | 0.0 | 0.00 | 0.28 | 0.28 | 86 | 1015.8 |
| 20260506083036 | 21 | 0 | 0.0 | 1.6 | 0.00 | 0.28 | 0.28 | 85 | 1016.0 |
| 20260506081536 | 21 | 0 | 0.0 | 4.8 | 0.00 | 0.28 | 0.28 | 85 | 1015.9 |
| 20260506073035 | 21 | 0 | 0.0 | 4.8 | 0.00 | 0.28 | 0.28 | 85 | 1015.9 |
| 20260506071536 | 21 | 179 | 0.0 | 3.2 | 0.00 | 0.28 | 0.28 | 85 | 1015.9 |
| 20260506061535 | 20 | 0 | 0.0 | 0.0 | 0.00 | 0.28 | 0.28 | 84 | 1016.7 |
| 20260506044538 | 20 | 58 | 0.0 | 3.2 | 0.25 | 0.61 | 0.25 | 79 | 1016.8 |
| 20260506043035 | 21 | 0 | 0.0 | 3.2 | 0.08 | 0.43 | 0.08 | 77 | 1016.8 |
| 20260506041536 | 21 | 0 | 0.0 | 4.8 | 0.00 | 0.36 | 0.00 | 75 | 1017.0 |
| 20260506040035 | 21 | 202 | 0.0 | 6.4 | 0.00 | 0.36 | 0.00 | 76 | 1017.1 |
| 20260506034540 | 21 | 203 | 1.6 | 8.0 | 0.00 | 0.36 | 0.36 | 76 | 1017.1 |
| 20260506033036 | 21 | 173 | 1.6 | 4.8 | 0.00 | 0.36 | 0.36 | 75 | 1017.1 |
| 20260506031537 | 21 | 0 | 0.0 | 4.8 | 0.00 | 0.36 | 0.36 | 75 | 1017.1 |
| 20260506030040 | 21 | 0 | 0.0 | 1.6 | 0.00 | 0.36 | 0.36 | 76 | 1017.2 |
| 20260506024556 | 21 | 199 | 0.0 | 6.4 | 0.00 | 0.36 | 0.36 | 77 | 1017.2 |
| 20260506023033 | 21 | 115 | 1.6 | 6.4 | 0.00 | 0.36 | 0.36 | 77 | 1017.0 |
| 20260506021536 | 21 | 115 | 0.0 | 4.8 | 0.00 | 0.36 | 0.36 | 77 | 1017.0 |
| 20260506020035 | 21 | 0 | 0.0 | 8.0 | 0.00 | 0.36 | 0.36 | 77 | 1017.1 |
| 20260506014536 | 20 | 0 | 0.0 | 8.0 | 0.00 | 0.36 | 0.36 | 76 | 1017.2 |
| 20260506013042 | 21 | 0 | 0.0 | 3.2 | 0.00 | 0.36 | 0.36 | 75 | 1017.2 |
| 20260506011533 | 21 | 0 | 0.0 | 9.7 | 0.00 | 0.36 | 0.36 | 74 | 1017.2 |
| 20260506010037 | 21 | 0 | 0.0 | 8.0 | 0.00 | 0.36 | 0.36 | 74 | 1017.0 |
| 20260506004535 | 21 | 0 | 0.0 | 11.3 | 0.00 | 0.36 | 0.36 | 74 | 1016.7 |
| 20260506003036 | 21 | 118 | 3.2 | 11.3 | 0.00 | 0.36 | 0.36 | 74 | 1016.6 |
| 20260506001538 | 21 | 0 | 0.0 | 6.4 | 0.00 | 0.36 | 0.36 | 72 | 1016.7 |
| 20260506000035 | 21 | 136 | 1.6 | 9.7 | 0.00 | 0.36 | 0.36 | 71 | 1016.8 |
| 20260505234541 | 21 | 105 | 0.0 | 8.0 | 0.00 | 0.36 | 0.36 | 70 | 1016.9 |
| 20260505233035 | 21 | 91 | 1.6 | 8.0 | 0.00 | 0.36 | 0.36 | 70 | 1017.0 |
| 20260505231538 | 22 | 111 | 0.0 | 3.2 | 0.00 | 0.36 | 0.36 | 70 | 1016.8 |
| 20260505230050 | 22 | 204 | 1.6 | 4.8 | 0.00 | 0.36 | 0.36 | 69 | 1016.8 |
| 20260505224535 | 22 | 152 | 1.6 | 11.3 | 0.00 | 0.36 | 0.36 | 69 | 1016.7 |
| 20260505223047 | 22 | 133 | 3.2 | 9.7 | 0.00 | 0.36 | 0.36 | 70 | 1016.8 |
| 20260505221537 | 22 | 199 | 1.6 | 11.3 | 0.00 | 0.36 | 0.36 | 70 | 1016.7 |
| 20260505220041 | 22 | 172 | 1.6 | 11.3 | 0.00 | 0.36 | 0.36 | 70 | 1016.8 |
| 20260505214532 | 22 | 115 | 3.2 | 9.7 | 0.00 | 0.36 | 0.36 | 68 | 1016.8 |
| 20260505213048 | 23 | 152 | 3.2 | 11.3 | 0.00 | 0.36 | 0.36 | 67 | 1016.8 |
| 20260505211535 | 23 | 200 | 1.6 | 9.7 | 0.00 | 0.36 | 0.36 | 65 | 1016.9 |
| 20260505210035 | 23 | 141 | 1.6 | 12.9 | 0.00 | 0.36 | 0.36 | 66 | 1017.0 |
| 20260505204534 | 23 | 133 | 6.4 | 14.5 | 0.00 | 0.36 | 0.36 | 64 | 1016.9 |
| 20260505203043 | 23 | 175 | 3.2 | 14.5 | 0.00 | 0.36 | 0.36 | 65 | 1017.0 |
| 20260505201537 | 23 | 197 | 1.6 | 16.1 | 0.00 | 0.36 | 0.36 | 66 | 1017.2 |